Weather History for Cape Girardeau, MO

Change the Weather History Date:

Sunday, July 7, 2013

  Actual Average Record
Temperature  
Mean Temperature 76 °F 79 °F  
Max Temperature 90 °F 89 °F 104 °F (2012)
Min Temperature 62 °F 68 °F 54 °F (2006)
Degree Days  
Heating Degree Days 0 0  
Month to date heating degree days 0 0  
Since 1 June heating degree days 0 4  
Since 1 July heating degree days 0 0  
Cooling Degree Days 11 14  
Month to date cooling degree days 50 95  
Year to date cooling degree days 554 559  
Since 1 June cooling degree days 383 407  
Growing Degree Days 26 (Base 50)    
Moisture  
Dew Point 68 °F    
Average Humidity 76    
Maximum Humidity 100    
Minimum Humidity 52    
Precipitation  
Precipitation 0.00 in 0.12 in 1.40 in (1987)
Month to date precipitation 0.05 0.76  
Year to date precipitation 23.98 25.43  
Sea Level Pressure  
Sea Level Pressure 30.05 in    
Wind  
Wind Speed 4 mph (South)    
Max Wind Speed 14 mph    
Max Gust Speed 17 mph    
Visibility 10 miles    
Events      
T = Trace of Precipitation, MM = Missing Value Source: NWS Daily Summary

Daily Weather History Graph

Daily Weather History Graph

Search for Another Location

Airport:

Trip Planner

Search our weather history database for the weather conditions in past years. The results will help you decide how hot, cold, wet, or windy it might be!

Date:

Astronomy

Jul. 07, 2013 Rise Set
Actual Time 5:44 AM CDT 8:21 PM CDT
Civil Twilight 5:14 AM CDT 8:51 PM CDT
Nautical Twilight 4:36 AM CDT 9:29 PM CDT
Astronomical Twilight 3:53 AM CDT 10:12 PM CDT
Moon 5:19 AM CDT (7/7) 7:47 PM CDT (7/7)
Length of Visible Light 15h 37m
Length of Day
14h 36m
Waning Crescent, 0% of the Moon is Illuminated
Jul 7
Waning Crescent
Jul 8
New
Jul 15
First Quarter
Jul 22
Full
Jul 29
Last Quarter

Hourly Weather History & Observations

Time (CDT) Temp. Heat Index Dew Point Humidity Pressure Visibility Wind Dir Wind Speed Gust Speed Precip Events Conditions
12:53 AM 66.9 °F - 63.0 °F 87% 30.04 in 10.0 mi SE 4.6 mph - N/A   Clear
1:53 AM 64.0 °F - 62.1 °F 93% 30.03 in 10.0 mi Calm Calm - N/A   Clear
2:53 AM 63.0 °F - 62.1 °F 97% 30.03 in 10.0 mi Calm Calm - N/A   Clear
3:53 AM 63.0 °F - 62.1 °F 97% 30.04 in 10.0 mi Calm Calm - N/A   Clear
4:53 AM 64.0 °F - 62.1 °F 93% 30.04 in 10.0 mi Calm Calm - N/A   Clear
5:53 AM 63.0 °F - 61.0 °F 93% 30.05 in 5.0 mi Calm Calm - N/A   Clear
6:53 AM 66.9 °F - 64.9 °F 93% 30.06 in 6.0 mi Calm Calm - N/A   Clear
7:53 AM 71.1 °F - 66.9 °F 87% 30.08 in 10.0 mi Calm Calm - N/A   Clear
8:25 AM 73.4 °F - 69.8 °F 88% 30.09 in 10.0 mi SSW 3.5 mph - N/A   Partly Cloudy
8:53 AM 75.9 °F - 70.0 °F 82% 30.09 in 10.0 mi SW 5.8 mph - N/A   Scattered Clouds
9:53 AM 80.1 °F 83.6 °F 71.1 °F 74% 30.07 in 10.0 mi Variable 5.8 mph - N/A   Clear
10:53 AM 82.9 °F 88.0 °F 72.0 °F 69% 30.08 in 10.0 mi South 3.5 mph - N/A   Partly Cloudy
11:53 AM 84.9 °F 90.1 °F 71.1 °F 63% 30.07 in 10.0 mi SW 5.8 mph - N/A   Scattered Clouds
12:53 PM 87.1 °F 93.6 °F 72.0 °F 61% 30.06 in 10.0 mi SSW 6.9 mph - N/A   Partly Cloudy
1:53 PM 88.0 °F 92.9 °F 70.0 °F 55% 30.05 in 10.0 mi Calm Calm - N/A   Clear
2:53 PM 89.1 °F 93.7 °F 69.1 °F 52% 30.04 in 10.0 mi SSW 5.8 mph - N/A   Partly Cloudy
3:53 PM 89.1 °F 93.7 °F 69.1 °F 52% 30.02 in 10.0 mi SW 6.9 mph - N/A   Partly Cloudy
4:53 PM 88.0 °F 92.1 °F 69.1 °F 53% 30.02 in 10.0 mi SE 9.2 mph - N/A   Partly Cloudy
5:53 PM 87.1 °F 91.3 °F 69.1 °F 55% 30.02 in 10.0 mi SSE 8.1 mph - N/A   Clear
6:53 PM 86.0 °F 89.4 °F 68.0 °F 55% 30.02 in 10.0 mi SSE 6.9 mph - N/A   Clear
7:53 PM 81.0 °F 84.1 °F 69.1 °F 67% 30.03 in 10.0 mi South 4.6 mph - N/A   Partly Cloudy
8:53 PM 78.1 °F - 69.1 °F 74% 30.04 in 10.0 mi South 5.8 mph - N/A   Clear
9:53 PM 77.0 °F - 68.0 °F 74% 30.06 in 10.0 mi SSE 5.8 mph - N/A   Clear
10:53 PM 75.9 °F - 69.1 °F 79% 30.06 in 10.0 mi SSE 6.9 mph - N/A   Clear
11:53 PM 73.9 °F - 68.0 °F 82% 30.08 in 10.0 mi SSE 5.8 mph - N/A   Clear